sat.trackr.live / text

‹ back to catalog

STARLINK-33843

NORAD 63507 · 2025-071Q

PAYLOAD ACTIVE UNKNOWN

§ Identity

Operator
Country
US
Launch date
2025-04-07
Launch site
AFWTR
Launch vehicle
Mass (kg)
RCS (m²)

Purposes: comms

External: N2YO · Heavens-Above · Gunter

§ Orbital elements

Epoch: 2026-09-20T11:06:56.738880Z

Period
94.01 min
Inclination
53.1630°
Eccentricity
0.0002049
Mean motion
15.31715781 rev/d
Perigee alt
469.3 km
Apogee alt
472.1 km
Semi-major
6,848.8 km
B*
4.8147e-4
RAAN
314.2594°
Arg perigee
47.6679°
Mean anomaly
312.4496°
Rev number
8,258

§ Raw data

STARLINK-338431 63507U 25071Q   26263.46315670  .00014612  00000+0  48147-3 0  99972 63507  53.1630 314.2594 0002049  47.6679 312.4496 15.31715781 82584

JSON: /api/v1/satellites/63507 · /tle

For live sub-satellite position, see the globe view (requires WebGL).

§ Visibility from observer

Set your observer location to see the next 7 days of passes ≥ 10°. The values pass through the URL so the page stays shareable.

No JS? Fill the form by hand. The geolocation button needs JavaScript.